N4HAC Weather Reports


time (UTC)temp
C
wind
direction
speed
KPH
gust
KPH
rain 1hr
cm
rain 24hr
cm
rain mn
cm
humidity
%
barometer
mb
20260505041734 12 5 1.6 3.2 0.00 0.00 0.00 84 1005.5
20260505041231 12 24 3.2 4.8 0.00 0.00 0.00 83 1005.6
20260505040729 13 12 4.8 4.8 0.00 0.00 0.00 82 1005.6
20260505040226 13 45 3.2 3.2 0.00 0.00 0.00 79 1005.6
20260505035723 13 351 0.0 4.8 0.00 0.00 0.00 79 1005.7
20260505035219 13 322 1.6 3.2 0.00 0.00 0.00 79 1005.6
20260505034716 13 24 3.2 3.2 0.00 0.00 0.00 79 1005.5
20260505034212 13 31 0.0 3.2 0.00 0.00 0.00 79 1005.6
20260505033708 14 327 0.0 3.2 0.00 0.00 0.00 76 1005.7
20260505033207 15 37 4.8 4.8 0.00 0.00 0.00 74 1005.7
20260505032705 15 37 1.6 3.2 0.00 0.00 0.00 74 1005.7
20260505032200 15 25 1.6 1.6 0.00 0.00 0.00 74 1005.8
20260505031658 14 313 0.0 3.2 0.00 0.00 0.00 75 1005.6
20260505031154 15 19 3.2 4.8 0.00 0.00 0.00 74 1006.0
20260505030651 15 27 0.0 3.2 0.00 0.00 0.00 71 1005.8
20260505030147 16 347 1.6 3.2 0.00 0.00 0.00 70 1005.6
20260505025643 16 82 1.6 3.2 0.00 0.00 0.00 68 1005.7
20260505025142 16 111 1.6 4.8 0.00 0.00 0.00 67 1005.7
20260505024639 16 151 4.8 12.9 0.00 0.00 0.00 67 1005.7
20260505024136 16 129 4.8 9.7 0.00 0.00 0.00 66 1005.8
20260505023633 17 141 8.0 9.7 0.00 0.00 0.00 65 1005.9
20260505023131 16 146 3.2 4.8 0.00 0.00 0.00 66 1005.8
20260505022628 16 44 0.0 3.2 0.00 0.00 0.00 65 1005.6
20260505022125 17 206 4.8 4.8 0.00 0.00 0.00 65 1005.6
20260505021621 17 173 3.2 6.4 0.00 0.00 0.00 64 1005.8
20260505021118 17 145 3.2 4.8 0.00 0.00 0.00 64 1005.7
20260505020614 17 135 3.2 4.8 0.00 0.00 0.00 63 1005.7
20260505020110 17 166 3.2 6.4 0.00 0.00 0.00 62 1005.8
20260505015607 17 248 3.2 6.4 0.00 0.00 0.00 62 1005.7
20260505015104 17 141 3.2 6.4 0.00 0.00 0.00 63 1005.7
20260505014601 17 174 3.2 4.8 0.00 0.00 0.00 63 1005.7
20260505014058 17 159 4.8 9.7 0.00 0.00 0.00 62 1005.5
20260505013555 17 136 11.3 12.9 0.00 0.00 0.00 61 1005.5
20260505013052 18 142 11.3 14.5 0.00 0.00 0.00 60 1005.3
20260505012550 17 123 8.0 11.3 0.00 0.00 0.00 60 1005.3
20260505012047 18 133 9.7 12.9 0.00 0.00 0.00 58 1005.1
20260505011543 18 119 6.4 8.0 0.00 0.00 0.00 57 1005.3
20260505011040 18 153 6.4 8.0 0.00 0.00 0.00 57 1005.1
20260505010535 18 145 3.2 3.2 0.00 0.00 0.00 57 1005.2
20260505010032 18 143 3.2 6.4 0.00 0.00 0.00 56 1005.2
20260505005528 18 151 0.0 3.2 0.00 0.00 0.00 55 1004.8
20260505005026 19 110 3.2 4.8 0.00 0.00 0.00 55 1004.7
20260505004523 19 131 3.2 4.8 0.00 0.00 0.00 54 1005.0
20260505004020 20 147 4.8 6.4 0.00 0.00 0.00 54 1004.9
20260505003517 20 134 6.4 9.7 0.00 0.00 0.00 53 1004.8
20260505003014 20 136 9.7 17.7 0.00 0.00 0.00 53 1004.8
20260505002509 20 166 12.9 17.7 0.00 0.00 0.00 51 1004.8
20260505002008 20 154 14.5 20.9 0.00 0.00 0.00 51 1004.9
20260505001505 20 152 16.1 22.5 0.00 0.00 0.00 50 1004.8
20260505001002 21 136 22.5 27.4 0.00 0.00 0.00 49 1004.8
20260505000500 21 150 9.7 17.7 0.00 0.00 0.00 49 1004.7
20260504235957 21 159 14.5 25.7 0.00 0.00 0.00 49 1004.6
20260504235454 21 161 17.7 20.9 0.00 0.00 0.00 49 1004.8
20260504234950 21 143 14.5 22.5 0.00 0.00 0.00 49 1004.5
20260504234448 21 145 16.1 27.4 0.00 0.00 0.00 49 1004.5
20260504233944 21 141 16.1 27.4 0.00 0.00 0.00 48 1004.3
20260504233440 21 150 19.3 22.5 0.00 0.00 0.00 48 1004.3
20260504232937 21 158 11.3 22.5 0.00 0.00 0.00 47 1004.6
20260504232434 21 141 22.5 22.5 0.00 0.00 0.00 47 1004.5
20260504231931 21 156 19.3 37.0 0.00 0.00 0.00 46 1004.2
20260504231427 22 154 17.7 43.5 0.00 0.00 0.00 45 1004.3
20260504230924 22 157 20.9 33.8 0.00 0.00 0.00 45 1004.4
20260504230421 22 136 25.7 41.8 0.00 0.00 0.00 43 1004.5
20260504225920 22 151 20.9 29.0 0.00 0.00 0.00 44 1004.3
20260504225416 22 145 17.7 30.6 0.00 0.00 0.00 44 1004.4
20260504224914 22 145 24.1 33.8 0.00 0.00 0.00 44 1004.2
20260504224410 22 138 29.0 29.0 0.00 0.00 0.00 44 1004.3
20260504223907 22 134 20.9 32.2 0.00 0.00 0.00 43 1004.1
20260504223402 22 137 14.5 25.7 0.00 0.00 0.00 42 1004.2
20260504222859 23 138 17.7 24.1 0.00 0.00 0.00 42 1004.0
20260504222355 23 146 14.5 32.2 0.00 0.00 0.00 41 1004.1
20260504221854 23 146 14.5 24.1 0.00 0.00 0.00 41 1004.0
20260504221350 23 146 14.5 25.7 0.00 0.00 0.00 40 1003.9
20260504220848 23 146 30.6 33.8 0.00 0.00 0.00 39 1003.9
20260504220344 24 141 22.5 24.1 0.00 0.00 0.00 40 1003.8
20260504215842 23 169 12.9 30.6 0.00 0.00 0.00 40 1003.9
20260504215338 24 136 17.7 19.3 0.00 0.00 0.00 40 1003.9
20260504214834 24 154 11.3 22.5 0.00 0.00 0.00 41 1004.0
20260504214331 24 142 20.9 29.0 0.00 0.00 0.00 38 1003.9
20260504213828 24 138 20.9 25.7 0.00 0.00 0.00 37 1003.8
20260504213323 24 137 19.3 24.1 0.00 0.00 0.00 37 1003.8
20260504212821 24 174 17.7 24.1 0.00 0.00 0.00 36 1003.6
20260504212317 24 167 22.5 32.2 0.00 0.00 0.00 37 1004.0
20260504211815 25 175 16.1 19.3 0.00 0.00 0.00 37 1003.5
20260504211311 24 162 14.5 24.1 0.00 0.00 0.00 38 1003.5
20260504210808 24 130 19.3 24.1 0.00 0.00 0.00 38 1003.8
20260504210306 24 141 22.5 29.0 0.00 0.00 0.00 38 1003.5
20260504205803 24 126 8.0 19.3 0.00 0.00 0.00 39 1003.6
20260504205300 24 124 6.4 24.1 0.00 0.00 0.00 39 1003.7
20260504204758 25 146 20.9 20.9 0.00 0.00 0.00 38 1003.6
20260504204256 25 54 4.8 25.7 0.00 0.00 0.00 38 1003.8
20260504203755 25 133 9.7 17.7 0.00 0.00 0.00 36 1003.8
20260504203252 25 147 4.8 19.3 0.00 0.00 0.00 39 1003.8
20260504202752 24 131 19.3 30.6 0.00 0.00 0.00 38 1004.0
20260504202250 24 141 19.3 30.6 0.00 0.00 0.00 39 1003.9
20260504201747 24 136 3.2 27.4 0.00 0.00 0.00 38 1003.8
20260504201244 24 139 17.7 20.9 0.00 0.00 0.00 39 1004.1
20260504200742 23 153 11.3 29.0 0.00 0.00 0.00 38 1004.0
20260504200237 25 148 3.2 12.9 0.00 0.00 0.00 37 1003.9
20260504195734 23 145 14.5 22.5 0.00 0.00 0.00 37 1004.2
20260504195230 23 146 12.9 33.8 0.00 0.00 0.00 38 1004.2
20260504194728 24 154 17.7 29.0 0.00 0.00 0.00 38 1004.5
20260504194223 24 138 19.3 19.3 0.00 0.00 0.00 35 1004.4
20260504193720 25 121 3.2 9.7 0.00 0.00 0.00 37 1004.5
20260504193218 24 133 14.5 25.7 0.00 0.00 0.00 36 1004.6
20260504192716 24 134 27.4 30.6 0.00 0.00 0.00 36 1004.6
20260504192213 24 139 19.3 24.1 0.00 0.00 0.00 37 1004.6
20260504191712 25 151 16.1 20.9 0.00 0.00 0.00 37 1004.8
20260504191209 23 139 12.9 27.4 0.00 0.00 0.00 40 1005.1
20260504190704 23 172 12.9 24.1 0.00 0.00 0.00 36 1005.2
20260504190200 23 146 19.3 27.4 0.00 0.00 0.00 38 1005.0
20260504185657 23 153 17.7 25.7 0.00 0.00 0.00 38 1005.0
20260504185153 23 179 14.5 30.6 0.00 0.00 0.00 35 1005.1
20260504184650 23 146 30.6 40.2 0.00 0.00 0.00 37 1005.2
20260504184145 22 170 6.4 24.1 0.00 0.00 0.00 39 1005.4
20260504183642 23 134 4.8 20.9 0.00 0.00 0.00 41 1005.4
20260504183139 22 154 24.1 40.2 0.00 0.00 0.00 39 1005.6
20260504182637 22 154 20.9 25.7 0.00 0.00 0.00 40 1005.4
20260504182134 22 145 4.8 11.3 0.00 0.00 0.00 40 1005.6
20260504181632 22 146 16.1 32.2 0.00 0.00 0.00 41 1005.7
20260504181129 22 40 6.4 29.0 0.00 0.00 0.00 40 1006.0
20260504180628 22 136 20.9 33.8 0.00 0.00 0.00 37 1005.8
20260504180126 22 162 9.7 24.1 0.00 0.00 0.00 41 1006.0
20260504175623 22 158 8.0 27.4 0.00 0.00 0.00 38 1006.0
20260504175120 22 128 3.2 29.0 0.00 0.00 0.00 44 1006.0
20260504174618 22 134 16.1 17.7 0.00 0.00 0.00 40 1006.2
20260504174114 22 125 9.7 16.1 0.00 0.00 0.00 39 1006.5
20260504173611 22 137 14.5 22.5 0.00 0.00 0.00 40 1006.5
20260504173109 22 35 6.4 14.5 0.00 0.00 0.00 39 1006.5
20260504172605 22 128 9.7 12.9 0.00 0.00 0.00 40 1006.5
20260504172102 22 117 6.4 17.7 0.00 0.00 0.00 40 1006.5
20260504171558 21 137 12.9 22.5 0.00 0.00 0.00 38 1006.6
20260504171055 22 133 8.0 14.5 0.00 0.00 0.00 40 1006.6
20260504170551 22 134 8.0 14.5 0.00 0.00 0.00 41 1006.6
20260504150935 18 151 22.5 22.5 0.00 0.00 0.00 43 1008.0
20260504150432 19 126 6.4 8.0 0.00 0.00 0.00 45 1008.2
20260504140858 17 128 11.3 16.1 0.00 0.00 0.00 46 1008.4
20260504140354 17 143 14.5 20.9 0.00 0.00 0.00 46 1008.6
20260504130319 13 30 6.4 6.4 0.00 0.00 0.00 66 1008.7
20260504120243 9 126 3.2 4.8 0.00 0.00 0.00 77 1009.7
20260504110710 5 80 1.6 3.2 0.00 0.00 0.00 94 1009.9
20260504110207 5 64 3.2 4.8 0.00 0.00 0.00 95 1009.7
20260504100131 5 137 3.2 4.8 0.00 0.00 0.00 93 1009.8
20260504081524 5 93 1.6 3.2 0.00 0.00 0.00 87 1009.9
20260504081019 5 136 3.2 3.2 0.00 0.00 0.00 87 1010.0
20260504080516 5 104 3.2 4.8 0.00 0.00 0.00 87 1009.9
20260504050335 5 42 3.2 3.2 0.00 0.00 0.00 84 1010.4
20260504045832 5 66 0.0 1.6 0.00 0.00 0.00 84 1010.3
20260504045332 5 141 0.0 1.6 0.00 0.00 0.00 84 1010.5
20260504044829 5 235 0.0 1.6 0.00 0.00 0.00 83 1010.5
20260504044326 5 18 0.0 3.2 0.00 0.00 0.00 83 1010.4
20260504043824 5 11 0.0 3.2 0.00 0.00 0.00 83 1010.4
20260504043320 4 284 3.2 3.2 0.00 0.00 0.00 86 1010.4
20260504042818 4 354 0.0 3.2 0.00 0.00 0.00 86 1010.3
20260504042314 4 1 3.2 3.2 0.00 0.00 0.00 86 1010.3